This is the latest recevied weather packets stored in our database for station/object OK3MS-5. If no packets are shown the sender has not sent any weather packets the latest 10 day(s).
| Time | Temp. | Humidity | Pressure | Rain* | Wind** | Luminosity | Snow |
|---|---|---|---|---|---|---|---|
| 1777824003 | 23.89° C | 33% | 1010.4 hPa | 0 mm | - | 219 W/m² | - |
| 1777823702 | 23.89° C | 33% | 1010.4 hPa | 0 mm | - | 234 W/m² | - |
| 1777823404 | 24.44° C | 32% | 1010.4 hPa | 0 mm | - | 248 W/m² | - |
| 1777823104 | 24.44° C | 32% | 1010.4 hPa | 0 mm | - | 260 W/m² | - |
| 1777822803 | 23.89° C | 33% | 1010.4 hPa | 0 mm | - | 268 W/m² | - |
| 1777822504 | 23.89° C | 32% | 1010.4 hPa | 0 mm | - | 258 W/m² | - |
| 1777822203 | 23.89° C | 31% | 1010.4 hPa | 0 mm | - | 292 W/m² | - |
| 1777821904 | 23.89° C | 32% | 1010.4 hPa | 0 mm | - | 313 W/m² | - |
| 1777821604 | 23.89° C | 30% | 1010.5 hPa | 0 mm | - | 325 W/m² | - |
| 1777821302 | 24.44° C | 29% | 1010.5 hPa | 0 mm | - | 338 W/m² | - |
| 1777821006 | 24.44° C | 28% | 1010.6 hPa | 0 mm | - | 352 W/m² | - |
| 1777820703 | 24.44° C | 29% | 1010.6 hPa | 0 mm | - | 366 W/m² | - |
| 1777820404 | 24.44° C | 33% | 1010.6 hPa | 0 mm | - | 379 W/m² | - |
| 1777820103 | 24.44° C | 33% | 1010.6 hPa | 0 mm | - | 396 W/m² | - |
| 1777819802 | 24.44° C | 32% | 1010.8 hPa | 0 mm | - | 400 W/m² | - |
| 1777819508 | 24.44° C | 32% | 1010.8 hPa | 0 mm | - | 407 W/m² | - |
| 1777819203 | 24.44° C | 30% | 1010.8 hPa | 0 mm | - | 440 W/m² | - |
| 1777818904 | 24.44° C | 32% | 1011 hPa | 0 mm | - | 454 W/m² | - |
| 1777818604 | 24.44° C | 32% | 1010.9 hPa | 0 mm | - | 462 W/m² | - |
| 1777818304 | 24.44° C | 32% | 1010.9 hPa | 0 mm | - | 462 W/m² | - |
| 1777818002 | 24.44° C | 32% | 1011.1 hPa | 0 mm | - | 483 W/m² | - |
| 1777817703 | 24.44° C | 31% | 1011.1 hPa | 0 mm | - | 497 W/m² | - |
| 1777817403 | 24.44° C | 31% | 1011.1 hPa | 0 mm | - | 512 W/m² | - |
| 1777817105 | 23.89° C | 31% | 1011.3 hPa | 0 mm | - | 522 W/m² | - |
| 1777816804 | 23.89° C | 31% | 1011.4 hPa | 0 mm | - | 540 W/m² | - |
* Rain latest hour (hover to see other rain measurements)
** Current wind speed in m/s (hover to see current wind gust speed)